Time,TemperatureF,DewpointF,PressureIn,WindDirection,WindDirectionDegrees,WindSpeedMPH,WindSpeedGustMPH,Humidity,HourlyPrecipIn,Conditions,Clouds,dailyrainin,SoftwareType,DateUTC
2013-03-31 08:21:00,36.3,26.5,30.08,North,0,0.0,0.0,67,0.00,,,0.00,WUHU216HW,2013-03-31 12:21:00,
2013-03-31 08:26:00,36.9,27.1,30.08,North,0,0.2,0.2,67,0.00,,,0.00,WUHU216HW,2013-03-31 12:26:00,
2013-03-31 08:27:00,37.2,27.3,30.08,North,0,0.0,0.2,67,0.00,,,0.00,WUHU216HW,2013-03-31 12:27:00,
2013-03-31 08:32:00,37.8,27.2,30.08,North,0,0.0,0.2,65,0.00,,,0.00,WUHU216HW,2013-03-31 12:32:00,
2013-03-31 08:37:00,38.5,27.8,30.07,North,0,0.0,0.2,65,0.00,,,0.00,WUHU216HW,2013-03-31 12:37:00,
2013-03-31 08:42:00,39.2,28.5,30.08,ESE,113,0.0,0.4,65,0.00,,,0.00,WUHU216HW,2013-03-31 12:42:00,
2013-03-31 08:47:00,40.0,28.9,30.08,SE,135,1.8,1.8,64,0.00,,,0.00,WUHU216HW,2013-03-31 12:47:00,
2013-03-31 08:48:00,40.2,29.1,30.07,South,180,3.4,3.4,64,0.00,,,0.00,WUHU216HW,2013-03-31 12:48:00,
2013-03-31 08:52:00,41.3,29.7,30.08,SSE,158,1.8,3.4,63,0.00,,,0.00,WUHU216HW,2013-03-31 12:52:00,
2013-03-31 08:53:00,41.3,29.7,30.08,SSE,158,1.8,3.4,63,0.00,,,0.00,WUHU216HW,2013-03-31 12:53:00,
2013-03-31 08:57:00,42.0,29.6,30.07,South,180,2.2,4.0,61,0.00,,,0.00,WUHU216HW,2013-03-31 12:57:00,
2013-03-31 08:58:00,42.0,29.6,30.07,South,180,2.2,4.0,61,0.00,,,0.00,WUHU216HW,2013-03-31 12:58:00,
2013-03-31 09:02:00,42.7,30.2,30.07,South,180,1.8,4.0,61,0.00,,,0.00,WUHU216HW,2013-03-31 13:02:00,
2013-03-31 09:03:00,42.9,30.4,30.07,SSE,158,4.0,4.0,61,0.00,,,0.00,WUHU216HW,2013-03-31 13:03:00,
2013-03-31 09:07:00,43.4,30.9,30.07,SSE,158,4.0,4.0,61,0.00,,,0.00,WUHU216HW,2013-03-31 13:07:00,
2013-03-31 09:08:00,43.8,30.9,30.07,ESE,113,1.8,4.0,60,0.00,,,0.00,WUHU216HW,2013-03-31 13:08:00,
2013-03-31 09:09:00,44.0,31.0,30.08,SE,135,1.3,4.0,60,0.00,,,0.00,WUHU216HW,2013-03-31 13:09:00,
2013-03-31 09:13:00,45.0,31.6,30.07,ENE,68,0.9,4.0,59,0.00,,,0.00,WUHU216HW,2013-03-31 13:13:00,
2013-03-31 09:14:00,45.0,31.6,30.07,ENE,68,0.9,4.0,59,0.00,,,0.00,WUHU216HW,2013-03-31 13:14:00,
2013-03-31 09:18:00,45.9,32.5,30.07,SSW,203,6.3,6.3,59,0.00,,,0.00,WUHU216HW,2013-03-31 13:18:00,
2013-03-31 09:19:00,45.9,32.5,30.07,SSW,203,6.3,6.3,59,0.00,,,0.00,WUHU216HW,2013-03-31 13:19:00,
2013-03-31 09:23:00,46.0,30.8,30.07,SSE,158,2.0,6.3,55,0.00,,,0.00,WUHU216HW,2013-03-31 13:23:00,
2013-03-31 09:24:00,46.0,30.8,30.07,SSE,158,2.0,6.3,55,0.00,,,0.00,WUHU216HW,2013-03-31 13:24:00,
2013-03-31 09:28:00,45.9,30.7,30.07,South,180,4.5,4.5,55,0.00,,,0.00,WUHU216HW,2013-03-31 13:28:00,
2013-03-31 09:29:00,46.0,30.8,30.07,SSW,203,1.8,4.5,55,0.00,,,0.00,WUHU216HW,2013-03-31 13:29:00,
2013-03-31 09:34:00,46.6,31.3,30.07,SE,135,1.3,4.5,55,0.00,,,0.00,WUHU216HW,2013-03-31 13:34:00,
2013-03-31 09:39:00,46.9,31.6,30.07,SSE,158,4.0,4.0,55,0.00,,,0.00,WUHU216HW,2013-03-31 13:39:00,
2013-03-31 09:44:00,47.2,30.0,30.07,SE,135,2.5,4.7,51,0.00,,,0.00,WUHU216HW,2013-03-31 13:44:00,
2013-03-31 09:49:00,47.2,30.5,30.07,South,180,3.4,3.4,52,0.00,,,0.00,WUHU216HW,2013-03-31 13:49:00,
2013-03-31 09:50:00,47.2,30.5,30.07,South,180,3.4,3.4,52,0.00,,,0.00,WUHU216HW,2013-03-31 13:50:00,
2013-03-31 09:54:00,47.6,31.3,30.07,SE,135,4.0,4.0,53,0.00,,,0.00,WUHU216HW,2013-03-31 13:54:00,
2013-03-31 09:55:00,47.6,31.3,30.07,SE,135,4.0,4.0,53,0.00,,,0.00,WUHU216HW,2013-03-31 13:55:00,
2013-03-31 09:59:00,47.9,31.1,30.06,South,180,2.0,4.0,52,0.00,,,0.00,WUHU216HW,2013-03-31 13:59:00,
2013-03-31 10:00:00,47.9,31.1,30.06,South,180,2.0,4.0,52,0.00,,,0.00,WUHU216HW,2013-03-31 14:00:00,
2013-03-31 10:05:00,48.3,31.5,30.07,SE,135,2.0,4.5,52,0.00,,,0.00,WUHU216HW,2013-03-31 14:05:00,
2013-03-31 10:06:00,48.5,31.6,30.07,SSE,158,4.0,4.5,52,0.00,,,0.00,WUHU216HW,2013-03-31 14:06:00,
2013-03-31 10:10:00,49.0,32.1,30.07,ESE,113,1.6,4.5,52,0.00,,,0.00,WUHU216HW,2013-03-31 14:10:00,
2013-03-31 10:11:00,49.2,32.3,30.07,SE,135,2.7,4.5,52,0.00,,,0.00,WUHU216HW,2013-03-31 14:11:00,
2013-03-31 10:15:00,49.4,32.5,30.07,SW,225,1.6,6.3,52,0.00,,,0.00,WUHU216HW,2013-03-31 14:15:00,
2013-03-31 10:16:00,49.6,32.2,30.07,SW,225,1.8,6.3,51,0.00,,,0.00,WUHU216HW,2013-03-31 14:16:00,
2013-03-31 10:20:00,49.6,31.7,30.07,SE,135,3.6,6.3,50,0.00,,,0.00,WUHU216HW,2013-03-31 14:20:00,
2013-03-31 10:21:00,49.6,31.7,30.07,SE,135,3.6,6.3,50,0.00,,,0.00,WUHU216HW,2013-03-31 14:21:00,
2013-03-31 10:25:00,49.6,31.2,30.07,SSW,203,5.8,7.8,49,0.00,,,0.00,WUHU216HW,2013-03-31 14:25:00,
2013-03-31 10:26:00,49.6,31.2,30.07,SSW,203,5.8,7.8,49,0.00,,,0.00,WUHU216HW,2013-03-31 14:26:00,
2013-03-31 10:30:00,49.6,30.6,30.06,SSW,203,1.8,7.8,48,0.00,,,0.00,WUHU216HW,2013-03-31 14:30:00,
2013-03-31 10:31:00,49.6,30.6,30.06,SSW,203,1.8,7.8,48,0.00,,,0.00,WUHU216HW,2013-03-31 14:31:00,
2013-03-31 10:32:00,49.4,30.5,30.06,South,180,2.5,7.8,48,0.00,,,0.00,WUHU216HW,2013-03-31 14:32:00,
2013-03-31 10:35:00,49.6,30.1,30.06,SSE,158,1.8,6.0,47,0.00,,,0.00,WUHU216HW,2013-03-31 14:35:00,
2013-03-31 10:36:00,49.6,30.1,30.06,SSE,158,1.8,6.0,47,0.00,,,0.00,WUHU216HW,2013-03-31 14:36:00,
2013-03-31 10:37:00,49.6,30.6,30.06,South,180,2.2,6.0,48,0.00,,,0.00,WUHU216HW,2013-03-31 14:37:00,
2013-03-31 10:40:00,50.0,30.4,30.06,West,270,1.1,7.2,47,0.00,,,0.00,WUHU216HW,2013-03-31 14:40:00,
2013-03-31 10:41:00,50.0,30.4,30.06,West,270,1.1,7.2,47,0.00,,,0.00,WUHU216HW,2013-03-31 14:41:00,
2013-03-31 10:42:00,50.0,31.0,30.06,SSW,203,4.0,7.2,48,0.00,,,0.00,WUHU216HW,2013-03-31 14:42:00,
2013-03-31 10:45:00,50.0,30.4,30.06,West,270,4.0,7.2,47,0.00,,,0.00,WUHU216HW,2013-03-31 14:45:00,
2013-03-31 10:46:00,50.0,30.4,30.06,West,270,4.0,7.2,47,0.00,,,0.00,WUHU216HW,2013-03-31 14:46:00,
2013-03-31 10:47:00,49.9,31.0,30.06,SSW,203,3.4,7.2,48,0.00,,,0.00,WUHU216HW,2013-03-31 14:47:00,
2013-03-31 10:50:00,49.9,30.4,30.05,SSW,203,4.7,6.9,47,0.00,,,0.00,WUHU216HW,2013-03-31 14:50:00,
2013-03-31 10:51:00,49.9,30.4,30.05,SSW,203,4.7,6.9,47,0.00,,,0.00,WUHU216HW,2013-03-31 14:51:00,
2013-03-31 10:52:00,50.1,30.6,30.05,SSW,203,2.5,6.9,47,0.00,,,0.00,WUHU216HW,2013-03-31 14:52:00,
2013-03-31 10:56:00,50.4,30.9,30.05,South,180,2.2,6.9,47,0.00,,,0.00,WUHU216HW,2013-03-31 14:56:00,
2013-03-31 10:57:00,50.6,31.6,30.05,South,180,3.1,6.9,48,0.00,,,0.00,WUHU216HW,2013-03-31 14:57:00,
2013-03-31 11:01:00,51.0,31.4,30.05,SE,135,4.0,6.9,47,0.00,,,0.00,WUHU216HW,2013-03-31 15:01:00,
2013-03-31 11:02:00,51.1,31.5,30.05,SE,135,2.5,6.9,47,0.00,,,0.00,WUHU216HW,2013-03-31 15:02:00,
2013-03-31 11:03:00,51.3,31.7,30.05,SE,135,2.2,6.9,47,0.00,,,0.00,WUHU216HW,2013-03-31 15:03:00,
2013-03-31 11:06:00,51.7,31.5,30.05,SSE,158,4.7,6.9,46,0.00,,,0.00,WUHU216HW,2013-03-31 15:06:00,
2013-03-31 11:07:00,51.9,31.7,30.05,South,180,5.6,6.9,46,0.00,,,0.00,WUHU216HW,2013-03-31 15:07:00,
2013-03-31 11:08:00,51.9,31.7,30.05,South,180,5.1,6.9,46,0.00,,,0.00,WUHU216HW,2013-03-31 15:08:00,
2013-03-31 11:11:00,52.0,31.7,30.05,SSE,158,4.9,8.1,46,0.00,,,0.00,WUHU216HW,2013-03-31 15:11:00,
2013-03-31 11:12:00,52.0,31.7,30.05,SSE,158,4.9,8.1,46,0.00,,,0.00,WUHU216HW,2013-03-31 15:12:00,
2013-03-31 11:13:00,52.2,30.8,30.05,SSE,158,10.3,10.3,44,0.00,,,0.00,WUHU216HW,2013-03-31 15:13:00,
2013-03-31 11:17:00,52.4,31.0,30.05,SW,225,7.2,10.3,44,0.00,,,0.00,WUHU216HW,2013-03-31 15:17:00,
2013-03-31 11:18:00,52.6,32.3,30.05,South,180,4.7,10.3,46,0.00,,,0.00,WUHU216HW,2013-03-31 15:18:00,
2013-03-31 11:19:00,52.6,32.3,30.05,South,180,2.5,10.3,46,0.00,,,0.00,WUHU216HW,2013-03-31 15:19:00,
2013-03-31 11:22:00,52.9,32.5,30.04,South,180,7.6,10.3,46,0.00,,,0.00,WUHU216HW,2013-03-31 15:22:00,
2013-03-31 11:23:00,53.0,32.7,30.05,South,180,8.9,8.9,46,0.00,,,0.00,WUHU216HW,2013-03-31 15:23:00,
2013-03-31 11:24:00,53.2,32.3,30.05,South,180,6.0,8.9,45,0.00,,,0.00,WUHU216HW,2013-03-31 15:24:00,
2013-03-31 11:27:00,53.0,31.6,30.04,SSW,203,6.5,8.9,44,0.00,,,0.00,WUHU216HW,2013-03-31 15:27:00,
2013-03-31 11:28:00,53.0,31.6,30.05,SSW,203,10.7,10.7,44,0.00,,,0.00,WUHU216HW,2013-03-31 15:28:00,
2013-03-31 11:29:00,52.8,31.4,30.05,South,180,7.8,10.7,44,0.00,,,0.00,WUHU216HW,2013-03-31 15:29:00,
2013-03-31 11:32:00,52.7,31.3,30.05,South,180,4.9,10.7,44,0.00,,,0.00,WUHU216HW,2013-03-31 15:32:00,
2013-03-31 11:33:00,52.7,31.3,30.04,SSW,203,5.6,10.7,44,0.00,,,0.00,WUHU216HW,2013-03-31 15:33:00,
2013-03-31 11:35:00,52.7,30.7,30.04,SW,225,5.1,10.7,43,0.00,,,0.00,WUHU216HW,2013-03-31 15:35:00,
2013-03-31 11:37:00,52.7,31.3,30.04,SSE,158,4.7,10.7,44,0.00,,,0.00,WUHU216HW,2013-03-31 15:37:00,
2013-03-31 11:39:00,53.0,31.0,30.04,WSW,248,7.6,7.6,43,0.00,,,0.00,WUHU216HW,2013-03-31 15:39:00,
2013-03-31 11:40:00,53.0,31.6,30.04,SSW,203,6.0,7.6,44,0.00,,,0.00,WUHU216HW,2013-03-31 15:40:00,
2013-03-31 11:43:00,53.2,31.7,30.04,South,180,5.6,7.6,44,0.00,,,0.00,WUHU216HW,2013-03-31 15:43:00,
2013-03-31 11:44:00,53.4,30.7,30.04,SSE,158,9.8,9.8,42,0.00,,,0.00,WUHU216HW,2013-03-31 15:44:00,
2013-03-31 11:45:00,53.6,31.5,30.04,South,180,5.8,9.8,43,0.00,,,0.00,WUHU216HW,2013-03-31 15:45:00,
2013-03-31 11:48:00,53.6,30.3,30.04,SE,135,6.9,9.8,41,0.00,,,0.00,WUHU216HW,2013-03-31 15:48:00,
2013-03-31 11:49:00,53.4,31.3,30.04,West,270,2.9,9.8,43,0.00,,,0.00,WUHU216HW,2013-03-31 15:49:00,
2013-03-31 11:50:00,53.6,31.5,30.03,SSW,203,4.0,9.8,43,0.00,,,0.00,WUHU216HW,2013-03-31 15:50:00,
2013-03-31 11:52:00,53.6,30.9,30.03,South,180,5.1,5.1,42,0.00,,,0.00,WUHU216HW,2013-03-31 15:52:00,
2013-03-31 11:53:00,53.6,30.9,30.03,South,180,5.1,9.8,42,0.00,,,0.00,WUHU216HW,2013-03-31 15:53:00,
2013-03-31 11:54:00,53.6,30.9,30.03,South,180,5.1,9.2,42,0.00,,,0.00,WUHU216HW,2013-03-31 15:54:00,
2013-03-31 11:55:00,53.6,30.9,30.03,South,180,5.1,9.2,42,0.00,,,0.00,WUHU216HW,2013-03-31 15:55:00,
2013-03-31 11:58:00,53.6,30.9,30.03,South,180,5.1,5.1,42,0.00,,,0.00,WUHU216HW,2013-03-31 15:58:00,
2013-03-31 11:59:00,53.6,30.9,30.03,South,180,5.1,5.1,42,0.00,,,0.00,WUHU216HW,2013-03-31 15:59:00,
2013-03-31 12:01:00,53.6,30.9,30.03,South,180,5.1,5.1,42,0.00,,,0.00,WUHU216HW,2013-03-31 16:01:00,